sat.trackr.live / text

‹ back to catalog

STARLINK-34332

NORAD 64213 · 2025-117L

PAYLOAD ACTIVE UNKNOWN

§ Identity

Operator
Country
US
Launch date
2025-05-31
Launch site
AFWTR
Launch vehicle
Mass (kg)
RCS (m²)

Purposes: comms

External: N2YO · Heavens-Above · Gunter

§ Orbital elements

Epoch: 2026-05-25T04:00:03.998880Z

Period
93.85 min
Inclination
53.1611°
Eccentricity
0.0000303
Mean motion
15.34284273 rev/d
Perigee alt
462.8 km
Apogee alt
463.3 km
Semi-major
6,841.2 km
B*
3.3306e-3
RAAN
44.5937°
Arg perigee
261.8992°
Mean anomaly
23.7588°
Rev number
585

§ Raw data

STARLINK-343321 64213U 25117L   26145.16671295  .00113450  00000+0  33306-2 0  99972 64213  53.1611  44.5937 0000303 261.8992  23.7588 15.34284273  5850

JSON: /api/v1/satellites/64213 · /tle

For live sub-satellite position, see the globe view (requires WebGL).

§ Visibility from observer

Set your observer location to see the next 7 days of passes ≥ 10°. The values pass through the URL so the page stays shareable.

No JS? Fill the form by hand. The geolocation button needs JavaScript.